Regional Weather Roundup
Issued by NWS

Home | Current Version | Previous Version | Graphics & Text | Print | Product List | Glossary On
Versions: 1 2 3 4 5 6 7 8 9 10 11 12 13 14 15 16 17 18 19 20 21 22 23 24 25 26 27 28 29 30 31 32 33 34 35 36 37 38 39 40 41 42 43 44 45 46 47 48 49 50
000
ASUS45 KSLC 220010
RWRUT

UTAH REGIONAL WEATHER ROUNDUP
NATIONAL WEATHER SERVICE SALT LAKE CITY UT
600 PM MDT THU AUG 21 2014

UTZ001>011-023>025-220100-

NORTHERN UTAH

CITY           SKY/WX    TMP DP  RH WIND       PRES   REMARKS
HILL AFB       PTSUNNY   77  45  31 VRB2      30.06F
LOGAN          SUNNY     76  47  35 SW3       30.04F
OGDEN          MOSUNNY   80  43  26 SE5       30.03F
PROVO AIRPORT  NOT AVBL
SALT LAKE CITY PTSUNNY   79  42  26 SE21G28   30.01F
VERNAL         CLOUDY    77  47  34 NE10      30.10S
WENDOVER       MOSUNNY   84  39  20 S10       29.96F
HEBER CITY     PTSUNNY   73  43  33 NW6       30.10F
WEST JORDAN    MOSUNNY   77  52  41 E6        30.05F

$$

UTZ012>022-026-027-220100-

SOUTHERN UTAH

CITY           SKY/WX    TMP DP  RH WIND       PRES   REMARKS
BRYCE CANYON   PTSUNNY   59  48  67 NW6       30.30F
CEDAR CITY     PTSUNNY   74  45  35 W5        30.12F
MILFORD        MOSUNNY   81  40  23 S15       30.08F
MOAB/CYNLANDS  SUNNY     82  40  22 E6        30.04S
PRICE          MOSUNNY   78  42  27 E9        30.13S
ST GEORGE      MOCLDY    81  52  36 SW12      30.00R
KANAB          PTSUNNY   72  46  40 S20G31    30.15R

$$

REGIONAL REPORTS     COLORADO/ARIZONA

CITY           SKY/WX    TMP DP  RH WIND       PRES   REMARKS
CRAIG, CO      PTSUNNY   76  44  32 W10G18    30.18S
GRAND JUNCTION CLOUDY    78  42  27 CALM      30.08F
RIFLE          CLOUDY    77  34  21 W10       30.13S
MONTROSE       CLOUDY    77  45  32 NW13      30.16S
CORTEZ         SUNNY     78  33  19 NW12      30.16S
PAGE, AZ       CLOUDY    84  43  23 W5        30.04F
GRAND CANYON   CLOUDY    55  52  89 S8        30.25F
KINGMAN        PTSUNNY   75  56  51 E14       30.06F
FLAGSTAFF      RAIN      56  53  90 SW7       30.30R FOG

$$

REGIONAL REPORTS    NEVADA/IDAHO/WYOMING

CITY           SKY/WX    TMP DP  RH WIND       PRES   REMARKS
LAS VEGAS, NV  CLOUDY    79  51  37 S18G26    29.95F
ELY            PTSUNNY   78  34  20 S8        30.10F
ELKO           PTSUNNY   85  33  15 SW14G21   29.97F
POCATELLO, ID  PTSUNNY   77  49  37 S9        30.02S
BURLEY         LGT RAIN  70  52  52 S12       29.99S
EVANSTON, WY   MOSUNNY   69  40  34 W13       30.21S
ROCK SPRINGS   CLOUDY    60  51  72 SE10      30.23S

$$



USA.gov is the U.S. government's official web portal to all federal, state and local government web resources and services.